| time (UTC) | temp C | wind direction | speed KPH | gust KPH | rain 1hr cm | rain 24hr cm | rain mn cm | humidity % | barometer mb |
| 20260507113513 | -2 | 289 | 0.0 | 0.0 | 0.00 | 0.00 | 0.00 | 54 | 1011.9 |
| 20260507113033 | -2 | 289 | 0.0 | 0.0 | 0.00 | 0.00 | 0.00 | 55 | 1011.9 |
| 20260507112512 | -2 | 289 | 0.0 | 0.0 | 0.00 | 0.00 | 0.00 | 55 | 1011.8 |
| 20260507112012 | -2 | 289 | 0.0 | 0.0 | 0.00 | 0.00 | 0.00 | 54 | 1011.8 |
| 20260507111512 | -2 | 289 | 0.0 | 0.0 | 0.00 | 0.00 | 0.00 | 55 | 1011.9 |
| 20260507111011 | -2 | 289 | 0.0 | 0.0 | 0.00 | 0.00 | 0.00 | 55 | 1011.9 |
| 20260507110511 | -2 | 289 | 0.0 | 0.0 | 0.00 | 0.00 | 0.00 | 54 | 1011.8 |
| 20260507110015 | -1 | 289 | 0.0 | 0.0 | 0.00 | 0.00 | 0.00 | 53 | 1011.8 |
| 20260507105508 | -1 | 289 | 0.0 | 0.0 | 0.00 | 0.00 | 0.00 | 54 | 1011.9 |
| 20260507105008 | -1 | 289 | 0.0 | 0.0 | 0.00 | 0.00 | 0.00 | 53 | 1011.9 |
| 20260507104508 | -1 | 289 | 0.0 | 0.0 | 0.00 | 0.00 | 0.00 | 53 | 1011.9 |
| 20260507103508 | -1 | 289 | 0.0 | 0.0 | 0.00 | 0.00 | 0.00 | 53 | 1011.8 |
| 20260507103008 | -1 | 289 | 0.0 | 0.0 | 0.00 | 0.00 | 0.00 | 52 | 1011.9 |
| 20260507102506 | -1 | 289 | 0.0 | 0.0 | 0.00 | 0.00 | 0.00 | 50 | 1011.9 |
| 20260507102006 | -1 | 289 | 0.0 | 0.0 | 0.00 | 0.00 | 0.00 | 50 | 1011.8 |
| 20260507101513 | 0 | 290 | 0.0 | 0.0 | 0.00 | 0.00 | 0.00 | 50 | 1011.7 |
| 20260507101005 | 0 | 290 | 0.0 | 0.0 | 0.00 | 0.00 | 0.00 | 49 | 1011.9 |
| 20260507100504 | 0 | 290 | 0.0 | 0.0 | 0.00 | 0.00 | 0.00 | 49 | 1011.8 |
| 20260507100005 | 0 | 290 | 0.0 | 0.0 | 0.00 | 0.00 | 0.00 | 49 | 1011.9 |
| 20260507095503 | 0 | 290 | 0.0 | 0.0 | 0.00 | 0.00 | 0.00 | 49 | 1011.8 |
| 20260507095003 | 0 | 290 | 0.0 | 0.0 | 0.00 | 0.00 | 0.00 | 49 | 1011.7 |
| 20260507094503 | 0 | 290 | 0.0 | 0.0 | 0.00 | 0.00 | 0.00 | 48 | 1011.9 |
| 20260507093505 | 0 | 290 | 0.0 | 0.0 | 0.00 | 0.00 | 0.00 | 49 | 1011.8 |
| 20260507093101 | 0 | 290 | 0.0 | 0.0 | 0.00 | 0.00 | 0.00 | 48 | 1011.9 |
| 20260507092502 | 0 | 290 | 0.0 | 3.2 | 0.00 | 0.00 | 0.00 | 49 | 1011.9 |
| 20260507092000 | 0 | 290 | 0.0 | 3.2 | 0.00 | 0.00 | 0.00 | 49 | 1011.9 |
| 20260507091635 | 0 | 290 | 1.6 | 3.2 | 0.00 | 0.00 | 0.00 | 49 | 1011.9 |
| 20260507091105 | -1 | 290 | 0.0 | 1.6 | 0.00 | 0.00 | 0.00 | 49 | 1012.0 |
| 20260507090559 | 0 | 290 | 0.0 | 3.2 | 0.00 | 0.00 | 0.00 | 48 | 1012.0 |
| 20260507090057 | 0 | 290 | 0.0 | 4.8 | 0.00 | 0.00 | 0.00 | 46 | 1011.9 |
| 20260507085555 | 0 | 290 | 0.0 | 4.8 | 0.00 | 0.00 | 0.00 | 47 | 1012.0 |
| 20260507085054 | 0 | 290 | 3.2 | 4.8 | 0.00 | 0.00 | 0.00 | 46 | 1011.9 |
| 20260507084604 | 0 | 283 | 1.6 | 4.8 | 0.00 | 0.00 | 0.00 | 47 | 1011.9 |
| 20260507084153 | 0 | 283 | 0.0 | 3.2 | 0.00 | 0.00 | 0.00 | 46 | 1012.1 |
| 20260507083555 | 0 | 283 | 0.0 | 3.2 | 0.00 | 0.00 | 0.00 | 46 | 1012.0 |
| 20260507083052 | 0 | 283 | 0.0 | 3.2 | 0.00 | 0.00 | 0.00 | 47 | 1012.1 |
| 20260507082552 | 0 | 283 | 0.0 | 0.0 | 0.00 | 0.00 | 0.00 | 46 | 1011.9 |
| 20260507082050 | 0 | 283 | 0.0 | 0.0 | 0.00 | 0.00 | 0.00 | 45 | 1012.0 |
| 20260507081557 | 1 | 283 | 0.0 | 0.0 | 0.00 | 0.00 | 0.00 | 44 | 1011.9 |
| 20260507081052 | 1 | 283 | 0.0 | 0.0 | 0.00 | 0.00 | 0.00 | 44 | 1012.0 |
| 20260507080550 | 1 | 283 | 0.0 | 1.6 | 0.00 | 0.00 | 0.00 | 44 | 1012.0 |
| 20260507080050 | 1 | 283 | 0.0 | 4.8 | 0.00 | 0.00 | 0.00 | 44 | 1012.0 |
| 20260507075552 | 1 | 283 | 3.2 | 4.8 | 0.00 | 0.00 | 0.00 | 45 | 1012.0 |
| 20260507075049 | 1 | 284 | 1.6 | 4.8 | 0.00 | 0.00 | 0.00 | 46 | 1012.0 |
| 20260507074555 | 0 | 284 | 0.0 | 3.2 | 0.00 | 0.00 | 0.00 | 46 | 1012.1 |
| 20260507074148 | 0 | 284 | 0.0 | 3.2 | 0.00 | 0.00 | 0.00 | 45 | 1012.0 |
| 20260507073548 | 1 | 284 | 1.6 | 4.8 | 0.00 | 0.00 | 0.00 | 44 | 1011.9 |
| 20260507073052 | 1 | 284 | 1.6 | 3.2 | 0.00 | 0.00 | 0.00 | 44 | 1011.9 |
| 20260507072547 | 1 | 284 | 1.6 | 3.2 | 0.00 | 0.00 | 0.00 | 44 | 1011.8 |
| 20260507072050 | 1 | 284 | 0.0 | 4.8 | 0.00 | 0.00 | 0.00 | 44 | 1011.9 |
| 20260507071547 | 1 | 284 | 1.6 | 4.8 | 0.00 | 0.00 | 0.00 | 44 | 1011.8 |
| 20260507071046 | 1 | 284 | 0.0 | 6.4 | 0.00 | 0.00 | 0.00 | 44 | 1011.8 |
| 20260507070545 | 1 | 285 | 3.2 | 6.4 | 0.00 | 0.00 | 0.00 | 44 | 1011.8 |
| 20260507070046 | 1 | 319 | 0.0 | 3.2 | 0.00 | 0.00 | 0.00 | 44 | 1011.9 |
| 20260507065542 | 1 | 321 | 1.6 | 3.2 | 0.00 | 0.00 | 0.00 | 43 | 1011.9 |
| 20260507065042 | 1 | 321 | 0.0 | 3.2 | 0.00 | 0.00 | 0.00 | 43 | 1012.0 |
| 20260507064541 | 1 | 321 | 0.0 | 4.8 | 0.00 | 0.00 | 0.00 | 42 | 1011.9 |
| 20260507064141 | 1 | 321 | 0.0 | 4.8 | 0.00 | 0.00 | 0.00 | 41 | 1011.9 |
| 20260507063542 | 1 | 321 | 0.0 | 1.6 | 0.00 | 0.00 | 0.00 | 42 | 1012.0 |
| 20260507063043 | 1 | 321 | 0.0 | 3.2 | 0.00 | 0.00 | 0.00 | 42 | 1011.9 |
| 20260507062541 | 1 | 321 | 1.6 | 4.8 | 0.00 | 0.00 | 0.00 | 42 | 1012.0 |
| 20260507062040 | 1 | 321 | 1.6 | 4.8 | 0.00 | 0.00 | 0.00 | 42 | 1011.9 |
| 20260507061540 | 1 | 321 | 1.6 | 4.8 | 0.00 | 0.00 | 0.00 | 41 | 1011.9 |
| 20260507061045 | 1 | 19 | 0.0 | 4.8 | 0.00 | 0.00 | 0.00 | 41 | 1012.0 |
| 20260507060539 | 2 | 32 | 0.0 | 3.2 | 0.00 | 0.00 | 0.00 | 41 | 1011.7 |
| 20260507060040 | 2 | 32 | 0.0 | 6.4 | 0.00 | 0.00 | 0.00 | 41 | 1012.0 |
| 20260507055539 | 1 | 32 | 1.6 | 12.9 | 0.00 | 0.00 | 0.00 | 40 | 1011.9 |
| 20260507055039 | 1 | 28 | 3.2 | 12.9 | 0.00 | 0.00 | 0.00 | 41 | 1011.9 |
| 20260507054539 | 1 | 141 | 0.0 | 4.8 | 0.00 | 0.00 | 0.00 | 43 | 1011.8 |
| 20260507054139 | 1 | 141 | 1.6 | 4.8 | 0.00 | 0.00 | 0.00 | 42 | 1011.7 |
| 20260507053539 | 2 | 85 | 1.6 | 3.2 | 0.00 | 0.00 | 0.00 | 39 | 1011.8 |
| 20260507053039 | 2 | 80 | 0.0 | 3.2 | 0.00 | 0.00 | 0.00 | 38 | 1011.9 |
| 20260507052544 | 3 | 79 | 0.0 | 4.8 | 0.00 | 0.00 | 0.00 | 39 | 1011.9 |
| 20260507052039 | 3 | 79 | 1.6 | 4.8 | 0.00 | 0.00 | 0.00 | 39 | 1012.0 |
| 20260507051539 | 3 | 78 | 1.6 | 3.2 | 0.00 | 0.00 | 0.00 | 39 | 1012.0 |
| 20260507051038 | 3 | 78 | 0.0 | 0.0 | 0.00 | 0.00 | 0.00 | 38 | 1012.1 |
| 20260507050537 | 3 | 78 | 0.0 | 4.8 | 0.00 | 0.00 | 0.00 | 37 | 1012.1 |
| 20260507050041 | 3 | 78 | 1.6 | 6.4 | 0.00 | 0.00 | 0.00 | 37 | 1012.3 |
| 20260507045540 | 4 | 315 | 0.0 | 3.2 | 0.00 | 0.00 | 0.00 | 37 | 1012.2 |
| 20260507045036 | 3 | 315 | 1.6 | 3.2 | 0.00 | 0.00 | 0.00 | 38 | 1012.1 |
| 20260507044536 | 3 | 315 | 1.6 | 3.2 | 0.00 | 0.00 | 0.00 | 38 | 1012.3 |
| 20260507044136 | 3 | 315 | 0.0 | 3.2 | 0.00 | 0.00 | 0.00 | 38 | 1012.3 |
| 20260507043539 | 3 | 315 | 0.0 | 0.0 | 0.00 | 0.00 | 0.00 | 37 | 1012.4 |
| 20260507043053 | 3 | 315 | 0.0 | 0.0 | 0.00 | 0.00 | 0.00 | 37 | 1012.3 |
| 20260507042539 | 3 | 315 | 0.0 | 1.6 | 0.00 | 0.00 | 0.00 | 36 | 1012.3 |
| 20260507042042 | 3 | 315 | 0.0 | 3.2 | 0.00 | 0.00 | 0.00 | 37 | 1012.3 |
| 20260507041538 | 3 | 315 | 0.0 | 3.2 | 0.00 | 0.00 | 0.00 | 37 | 1012.3 |
| 20260507041037 | 3 | 315 | 0.0 | 3.2 | 0.00 | 0.00 | 0.00 | 36 | 1012.4 |
| 20260507040537 | 3 | 315 | 0.0 | 0.0 | 0.00 | 0.00 | 0.00 | 36 | 1012.4 |
| 20260507040039 | 3 | 315 | 0.0 | 0.0 | 0.00 | 0.00 | 0.00 | 36 | 1012.4 |
| 20260507035537 | 3 | 315 | 0.0 | 0.0 | 0.00 | 0.00 | 0.00 | 36 | 1012.5 |
| 20260507035036 | 4 | 315 | 0.0 | 0.0 | 0.00 | 0.00 | 0.00 | 36 | 1012.4 |
| 20260507034537 | 4 | 315 | 0.0 | 0.0 | 0.00 | 0.00 | 0.00 | 35 | 1012.6 |
| 20260507034136 | 4 | 315 | 0.0 | 0.0 | 0.00 | 0.00 | 0.00 | 35 | 1012.5 |
| 20260507033534 | 4 | 315 | 0.0 | 1.6 | 0.00 | 0.00 | 0.00 | 36 | 1012.6 |
| 20260507033034 | 3 | 315 | 0.0 | 1.6 | 0.00 | 0.00 | 0.00 | 36 | 1012.7 |
| 20260507032533 | 3 | 317 | 0.0 | 0.0 | 0.00 | 0.00 | 0.00 | 36 | 1012.5 |
| 20260507032033 | 3 | 317 | 0.0 | 0.0 | 0.00 | 0.00 | 0.00 | 36 | 1012.6 |
| 20260507031532 | 4 | 317 | 0.0 | 3.2 | 0.00 | 0.00 | 0.00 | 35 | 1012.6 |
| 20260507031032 | 4 | 317 | 0.0 | 3.2 | 0.00 | 0.00 | 0.00 | 35 | 1012.6 |
| 20260507030536 | 3 | 317 | 1.6 | 3.2 | 0.00 | 0.00 | 0.00 | 35 | 1012.6 |
| 20260507030132 | 3 | 317 | 1.6 | 3.2 | 0.00 | 0.00 | 0.00 | 35 | 1012.7 |
| 20260507025530 | 3 | 317 | 1.6 | 3.2 | 0.00 | 0.00 | 0.00 | 35 | 1012.7 |
| 20260507025032 | 4 | 317 | 1.6 | 3.2 | 0.00 | 0.00 | 0.00 | 35 | 1012.7 |
| 20260507024530 | 4 | 317 | 1.6 | 4.8 | 0.00 | 0.00 | 0.00 | 34 | 1012.6 |
| 20260507024030 | 5 | 317 | 3.2 | 4.8 | 0.00 | 0.00 | 0.00 | 33 | 1012.5 |
| 20260507023034 | 6 | 316 | 0.0 | 0.0 | 0.00 | 0.00 | 0.00 | 34 | 1012.6 |
| 20260507022531 | 6 | 311 | 0.0 | 0.0 | 0.00 | 0.00 | 0.00 | 33 | 1012.7 |
| 20260507022035 | 6 | 311 | 0.0 | 0.0 | 0.00 | 0.00 | 0.00 | 32 | 1012.7 |
| 20260507021532 | 7 | 311 | 0.0 | 0.0 | 0.00 | 0.00 | 0.00 | 31 | 1012.7 |
| 20260507021033 | 7 | 311 | 0.0 | 0.0 | 0.00 | 0.00 | 0.00 | 31 | 1012.7 |
| 20260507020530 | 8 | 311 | 0.0 | 0.0 | 0.00 | 0.00 | 0.00 | 29 | 1012.7 |
| 20260507020045 | 8 | 311 | 0.0 | 0.0 | 0.00 | 0.00 | 0.00 | 28 | 1012.7 |
| 20260507015529 | 9 | 311 | 0.0 | 1.6 | 0.00 | 0.00 | 0.00 | 27 | 1012.8 |
| 20260507015030 | 10 | 311 | 0.0 | 1.6 | 0.00 | 0.00 | 0.00 | 27 | 1012.7 |
| 20260507014533 | 11 | 311 | 0.0 | 1.6 | 0.00 | 0.00 | 0.00 | 26 | 1012.7 |
| 20260507014129 | 11 | 311 | 0.0 | 4.8 | 0.00 | 0.00 | 0.00 | 25 | 1012.8 |
| 20260507013525 | 11 | 311 | 0.0 | 4.8 | 0.00 | 0.00 | 0.00 | 25 | 1012.7 |
| 20260507013026 | 11 | 311 | 1.6 | 4.8 | 0.00 | 0.00 | 0.00 | 24 | 1012.8 |
| 20260507012524 | 12 | 310 | 0.0 | 6.4 | 0.00 | 0.00 | 0.00 | 24 | 1012.7 |
| 20260507012024 | 11 | 310 | 0.0 | 8.0 | 0.00 | 0.00 | 0.00 | 24 | 1012.7 |
| 20260507011535 | 11 | 301 | 3.2 | 8.0 | 0.00 | 0.00 | 0.00 | 24 | 1012.8 |
| 20260507011023 | 12 | 303 | 3.2 | 8.0 | 0.00 | 0.00 | 0.00 | 23 | 1012.7 |
| 20260507010523 | 12 | 322 | 0.0 | 6.4 | 0.00 | 0.00 | 0.00 | 23 | 1012.8 |
| 20260507010026 | 13 | 312 | 1.6 | 12.9 | 0.00 | 0.00 | 0.00 | 23 | 1012.8 |
| 20260507005523 | 13 | 313 | 3.2 | 12.9 | 0.00 | 0.00 | 0.00 | 22 | 1012.8 |
| 20260507005021 | 13 | 360 | 4.8 | 9.7 | 0.00 | 0.00 | 0.00 | 22 | 1012.9 |
| 20260507004521 | 13 | 13 | 4.8 | 9.7 | 0.00 | 0.00 | 0.00 | 22 | 1012.9 |
| 20260507004122 | 13 | 301 | 6.4 | 16.1 | 0.00 | 0.00 | 0.00 | 22 | 1012.9 |
| 20260507003522 | 13 | 302 | 6.4 | 16.1 | 0.00 | 0.00 | 0.00 | 22 | 1013.1 |
| 20260507003021 | 13 | 315 | 4.8 | 20.9 | 0.00 | 0.00 | 0.00 | 22 | 1012.9 |
| 20260507002522 | 13 | 277 | 6.4 | 20.9 | 0.00 | 0.00 | 0.00 | 22 | 1013.0 |
| 20260507002020 | 13 | 13 | 6.4 | 9.7 | 0.00 | 0.00 | 0.00 | 22 | 1013.0 |
| 20260507001545 | 13 | 319 | 6.4 | 14.5 | 0.00 | 0.00 | 0.00 | 22 | 1013.1 |
| 20260507001024 | 13 | 9 | 4.8 | 14.5 | 0.00 | 0.00 | 0.00 | 22 | 1013.1 |
| 20260507000519 | 13 | 279 | 3.2 | 16.1 | 0.00 | 0.00 | 0.00 | 22 | 1013.1 |
| 20260507000023 | 13 | 316 | 8.0 | 17.7 | 0.00 | 0.00 | 0.00 | 22 | 1013.2 |
| 20260506235521 | 13 | 293 | 4.8 | 22.5 | 0.00 | 0.00 | 0.00 | 23 | 1013.2 |
| 20260506235018 | 13 | 12 | 9.7 | 22.5 | 0.00 | 0.00 | 0.00 | 23 | 1013.1 |
| 20260506234518 | 13 | 284 | 4.8 | 14.5 | 0.00 | 0.00 | 0.00 | 22 | 1013.2 |
| 20260506234117 | 14 | 287 | 6.4 | 24.1 | 0.00 | 0.00 | 0.00 | 23 | 1013.3 |
| 20260506233520 | 14 | 259 | 4.8 | 24.1 | 0.00 | 0.00 | 0.00 | 23 | 1013.2 |
| 20260506233020 | 13 | 48 | 6.4 | 22.5 | 0.00 | 0.00 | 0.00 | 23 | 1013.4 |
| 20260506232519 | 13 | 19 | 8.0 | 22.5 | 0.00 | 0.00 | 0.00 | 22 | 1013.3 |
| 20260506232018 | 13 | 315 | 6.4 | 16.1 | 0.00 | 0.00 | 0.00 | 22 | 1013.4 |
| 20260506231519 | 13 | 259 | 6.4 | 16.1 | 0.00 | 0.00 | 0.00 | 22 | 1013.3 |
| 20260506231021 | 13 | 300 | 6.4 | 19.3 | 0.00 | 0.00 | 0.00 | 22 | 1013.4 |
| 20260506230520 | 14 | 319 | 9.7 | 20.9 | 0.00 | 0.00 | 0.00 | 21 | 1013.4 |
| 20260506230017 | 14 | 331 | 8.0 | 20.9 | 0.00 | 0.00 | 0.00 | 22 | 1013.3 |
| 20260506225516 | 14 | 23 | 6.4 | 14.5 | 0.00 | 0.00 | 0.00 | 20 | 1013.3 |
| 20260506225018 | 14 | 303 | 4.8 | 14.5 | 0.00 | 0.00 | 0.00 | 21 | 1013.5 |
| 20260506224516 | 14 | 333 | 4.8 | 19.3 | 0.00 | 0.00 | 0.00 | 22 | 1013.4 |
| 20260506224114 | 13 | 236 | 8.0 | 17.7 | 0.00 | 0.00 | 0.00 | 21 | 1013.6 |
| 20260506223512 | 13 | 311 | 9.7 | 17.7 | 0.00 | 0.00 | 0.00 | 21 | 1013.6 |
| 20260506223012 | 13 | 256 | 9.7 | 17.7 | 0.00 | 0.00 | 0.00 | 23 | 1013.6 |
| 20260506222516 | 13 | 226 | 4.8 | 22.5 | 0.00 | 0.00 | 0.00 | 22 | 1013.5 |
| 20260506222010 | 13 | 250 | 8.0 | 22.5 | 0.00 | 0.00 | 0.00 | 22 | 1013.7 |
| 20260506221510 | 13 | 239 | 9.7 | 29.0 | 0.00 | 0.00 | 0.00 | 22 | 1013.8 |
| 20260506221009 | 13 | 259 | 14.5 | 29.0 | 0.00 | 0.00 | 0.00 | 21 | 1013.9 |
| 20260506220508 | 13 | 258 | 9.7 | 20.9 | 0.00 | 0.00 | 0.00 | 22 | 1013.9 |
| 20260506220008 | 13 | 302 | 8.0 | 17.7 | 0.00 | 0.00 | 0.00 | 22 | 1014.0 |
| 20260506215507 | 13 | 272 | 4.8 | 17.7 | 0.00 | 0.00 | 0.00 | 22 | 1014.0 |
| 20260506215007 | 13 | 303 | 11.3 | 20.9 | 0.00 | 0.00 | 0.00 | 21 | 1014.2 |
| 20260506214507 | 13 | 313 | 11.3 | 20.9 | 0.00 | 0.00 | 0.00 | 23 | 1014.3 |
| 20260506214106 | 13 | 271 | 12.9 | 22.5 | 0.00 | 0.00 | 0.00 | 23 | 1014.4 |
| 20260506213510 | 13 | 257 | 12.9 | 22.5 | 0.00 | 0.00 | 0.00 | 22 | 1014.6 |
| 20260506213006 | 13 | 242 | 8.0 | 17.7 | 0.00 | 0.00 | 0.00 | 21 | 1014.7 |
| 20260506212506 | 13 | 294 | 9.7 | 24.1 | 0.00 | 0.00 | 0.00 | 22 | 1014.8 |
| 20260506212009 | 13 | 265 | 11.3 | 24.1 | 0.00 | 0.00 | 0.00 | 22 | 1014.8 |
| 20260506211505 | 13 | 234 | 4.8 | 19.3 | 0.00 | 0.00 | 0.00 | 22 | 1014.8 |
| 20260506211005 | 13 | 290 | 8.0 | 19.3 | 0.00 | 0.00 | 0.00 | 22 | 1015.0 |
| 20260506210508 | 13 | 296 | 8.0 | 22.5 | 0.00 | 0.00 | 0.00 | 22 | 1015.0 |
| 20260506210007 | 13 | 279 | 11.3 | 22.5 | 0.00 | 0.00 | 0.00 | 23 | 1015.2 |
| 20260506205502 | 13 | 5 | 8.0 | 17.7 | 0.00 | 0.00 | 0.00 | 23 | 1015.1 |
| 20260506205002 | 13 | 220 | 6.4 | 27.4 | 0.00 | 0.00 | 0.00 | 21 | 1015.2 |
| 20260506204501 | 13 | 237 | 14.5 | 27.4 | 0.00 | 0.00 | 0.00 | 23 | 1015.4 |
| 20260506204102 | 12 | 255 | 3.2 | 20.9 | 0.00 | 0.00 | 0.00 | 22 | 1015.4 |
| 20260506203506 | 12 | 255 | 3.2 | 20.9 | 0.00 | 0.00 | 0.00 | 22 | 1015.3 |
| 20260506203008 | 12 | 311 | 12.9 | 20.9 | 0.00 | 0.00 | 0.00 | 23 | 1015.5 |
| 20260506202504 | 12 | 257 | 4.8 | 24.1 | 0.00 | 0.00 | 0.00 | 24 | 1015.5 |
| 20260506202004 | 12 | 305 | 8.0 | 24.1 | 0.00 | 0.00 | 0.00 | 23 | 1015.8 |
| 20260506201603 | 12 | 261 | 6.4 | 19.3 | 0.00 | 0.00 | 0.00 | 23 | 1015.7 |
| 20260506201001 | 12 | 278 | 3.2 | 17.7 | 0.00 | 0.00 | 0.00 | 24 | 1015.8 |
| 20260506200501 | 12 | 320 | 8.0 | 24.1 | 0.00 | 0.00 | 0.00 | 24 | 1016.0 |
| 20260506200001 | 12 | 266 | 9.7 | 24.1 | 0.00 | 0.00 | 0.00 | 24 | 1016.1 |
| 20260506195502 | 12 | 355 | 6.4 | 20.9 | 0.00 | 0.00 | 0.00 | 25 | 1016.2 |
| 20260506195059 | 12 | 281 | 9.7 | 20.9 | 0.00 | 0.00 | 0.00 | 25 | 1016.2 |
| 20260506194601 | 12 | 319 | 4.8 | 17.7 | 0.00 | 0.00 | 0.00 | 25 | 1016.2 |
| 20260506194057 | 12 | 44 | 8.0 | 17.7 | 0.00 | 0.00 | 0.00 | 24 | 1016.4 |
| 20260506193105 | 11 | 260 | 12.9 | 20.9 | 0.00 | 0.00 | 0.00 | 25 | 1016.5 |
| 20260506192555 | 12 | 274 | 9.7 | 14.5 | 0.00 | 0.00 | 0.00 | 25 | 1016.7 |
| 20260506192054 | 11 | 225 | 4.8 | 14.5 | 0.00 | 0.00 | 0.00 | 25 | 1016.9 |
| 20260506191555 | 11 | 309 | 6.4 | 12.9 | 0.00 | 0.00 | 0.00 | 27 | 1016.9 |
| 20260506191053 | 10 | 194 | 1.6 | 16.1 | 0.00 | 0.00 | 0.00 | 25 | 1017.1 |
| 20260506190553 | 11 | 274 | 11.3 | 22.5 | 0.00 | 0.00 | 0.00 | 25 | 1017.3 |
| 20260506190054 | 11 | 279 | 16.1 | 25.7 | 0.00 | 0.00 | 0.00 | 25 | 1017.3 |
| 20260506185551 | 11 | 285 | 12.9 | 32.2 | 0.00 | 0.00 | 0.00 | 25 | 1017.4 |
| 20260506185050 | 11 | 244 | 9.7 | 29.0 | 0.00 | 0.00 | 0.00 | 25 | 1017.4 |
| 20260506184551 | 11 | 276 | 9.7 | 29.0 | 0.00 | 0.00 | 0.00 | 25 | 1017.7 |
| 20260506184049 | 11 | 289 | 11.3 | 24.1 | 0.00 | 0.00 | 0.00 | 25 | 1017.8 |
| 20260506183047 | 10 | 272 | 9.7 | 17.7 | 0.00 | 0.00 | 0.00 | 24 | 1018.1 |
| 20260506182546 | 10 | 247 | 4.8 | 14.5 | 0.00 | 0.00 | 0.00 | 24 | 1018.1 |
| 20260506182047 | 10 | 304 | 4.8 | 25.7 | 0.00 | 0.00 | 0.00 | 24 | 1018.2 |
| 20260506181553 | 10 | 234 | 16.1 | 25.7 | 0.00 | 0.00 | 0.00 | 24 | 1018.2 |
| 20260506181045 | 11 | 232 | 11.3 | 17.7 | 0.00 | 0.00 | 0.00 | 24 | 1018.4 |
| 20260506180545 | 10 | 291 | 8.0 | 20.9 | 0.00 | 0.00 | 0.00 | 25 | 1018.4 |
| 20260506180042 | 10 | 331 | 4.8 | 20.9 | 0.00 | 0.00 | 0.00 | 25 | 1018.6 |
| 20260506175541 | 10 | 323 | 9.7 | 20.9 | 0.00 | 0.00 | 0.00 | 24 | 1018.6 |
| 20260506175044 | 10 | 288 | 12.9 | 19.3 | 0.00 | 0.00 | 0.00 | 25 | 1018.7 |
| 20260506174540 | 10 | 319 | 4.8 | 19.3 | 0.00 | 0.00 | 0.00 | 25 | 1018.8 |
| 20260506174138 | 10 | 312 | 6.4 | 19.3 | 0.00 | 0.00 | 0.00 | 25 | 1018.8 |
| 20260506173041 | 9 | 283 | 6.4 | 19.3 | 0.00 | 0.00 | 0.00 | 26 | 1019.0 |
| 20260506172535 | 9 | 297 | 4.8 | 17.7 | 0.00 | 0.00 | 0.00 | 25 | 1019.0 |
| 20260506172035 | 10 | 270 | 11.3 | 20.9 | 0.00 | 0.00 | 0.00 | 25 | 1019.2 |
| 20260506171536 | 9 | 235 | 12.9 | 20.9 | 0.00 | 0.00 | 0.00 | 26 | 1019.2 |
| 20260506171035 | 9 | 21 | 4.8 | 17.7 | 0.00 | 0.00 | 0.00 | 25 | 1019.3 |
| 20260506170534 | 10 | 304 | 9.7 | 20.9 | 0.00 | 0.00 | 0.00 | 25 | 1019.5 |
| 20260506170038 | 9 | 271 | 9.7 | 19.3 | 0.00 | 0.00 | 0.00 | 26 | 1019.5 |
| 20260506165533 | 9 | 319 | 8.0 | 16.1 | 0.00 | 0.00 | 0.00 | 27 | 1019.3 |
| 20260506165032 | 9 | 348 | 9.7 | 17.7 | 0.00 | 0.00 | 0.00 | 25 | 1019.5 |
| 20260506164545 | 8 | 5 | 4.8 | 17.7 | 0.00 | 0.00 | 0.00 | 26 | 1019.6 |
| 20260506164031 | 9 | 290 | 8.0 | 17.7 | 0.00 | 0.00 | 0.00 | 25 | 1019.7 |
| 20260506163030 | 9 | 321 | 4.8 | 16.1 | 0.00 | 0.00 | 0.00 | 26 | 1019.8 |
| 20260506162528 | 8 | 302 | 8.0 | 16.1 | 0.00 | 0.00 | 0.00 | 25 | 1020.0 |
| 20260506162027 | 8 | 323 | 8.0 | 14.5 | 0.00 | 0.00 | 0.00 | 25 | 1020.0 |
| 20260506161528 | 8 | 346 | 4.8 | 19.3 | 0.00 | 0.00 | 0.00 | 26 | 1020.1 |
| 20260506161026 | 8 | 355 | 6.4 | 19.3 | 0.00 | 0.00 | 0.00 | 27 | 1020.1 |
| 20260506160525 | 8 | 283 | 6.4 | 19.3 | 0.00 | 0.00 | 0.00 | 27 | 1020.0 |
| 20260506160024 | 7 | 246 | 6.4 | 19.3 | 0.00 | 0.00 | 0.00 | 28 | 1020.2 |
| 20260506155522 | 7 | 311 | 4.8 | 12.9 | 0.00 | 0.00 | 0.00 | 29 | 1020.3 |
| 20260506155021 | 7 | 276 | 4.8 | 11.3 | 0.00 | 0.00 | 0.00 | 34 | 1020.3 |
| 20260506154520 | 7 | 241 | 3.2 | 11.3 | 0.00 | 0.00 | 0.00 | 35 | 1020.4 |
| 20260506154019 | 7 | 108 | 3.2 | 12.9 | 0.00 | 0.00 | 0.00 | 34 | 1020.5 |
| 20260506153017 | 6 | 130 | 3.2 | 14.5 | 0.00 | 0.00 | 0.00 | 36 | 1020.5 |
| 20260506152516 | 6 | 136 | 6.4 | 14.5 | 0.00 | 0.00 | 0.00 | 39 | 1020.5 |
| 20260506152014 | 6 | 134 | 3.2 | 14.5 | 0.00 | 0.00 | 0.00 | 39 | 1020.6 |
| 20260506151515 | 5 | 132 | 6.4 | 14.5 | 0.00 | 0.00 | 0.00 | 41 | 1020.8 |
| 20260506151012 | 5 | 127 | 8.0 | 12.9 | 0.00 | 0.00 | 0.00 | 43 | 1020.8 |
| 20260506150511 | 5 | 192 | 3.2 | 11.3 | 0.00 | 0.00 | 0.00 | 44 | 1020.9 |
| 20260506150009 | 4 | 133 | 4.8 | 12.9 | 0.00 | 0.00 | 0.00 | 45 | 1020.8 |
| 20260506145508 | 3 | 135 | 6.4 | 12.9 | 0.00 | 0.00 | 0.00 | 45 | 1021.0 |
| 20260506145008 | 3 | 146 | 6.4 | 11.3 | 0.00 | 0.00 | 0.00 | 45 | 1021.0 |
| 20260506144511 | 3 | 184 | 3.2 | 8.0 | 0.00 | 0.00 | 0.00 | 48 | 1021.0 |
| 20260506144006 | 2 | 163 | 1.6 | 9.7 | 0.00 | 0.00 | 0.00 | 47 | 1021.1 |
| 20260506143011 | 2 | 166 | 4.8 | 9.7 | 0.00 | 0.00 | 0.00 | 48 | 1021.2 |
| 20260506142513 | 2 | 167 | 3.2 | 9.7 | 0.00 | 0.00 | 0.00 | 49 | 1021.2 |
| 20260506142007 | 1 | 171 | 3.2 | 8.0 | 0.00 | 0.00 | 0.00 | 49 | 1021.3 |
| 20260506141521 | 1 | 173 | 6.4 | 9.7 | 0.00 | 0.00 | 0.00 | 49 | 1021.3 |
| 20260506141006 | 1 | 196 | 4.8 | 9.7 | 0.00 | 0.00 | 0.00 | 50 | 1021.2 |
| 20260506140505 | 1 | 219 | 4.8 | 8.0 | 0.00 | 0.00 | 0.00 | 51 | 1021.3 |
| 20260506140003 | 0 | 227 | 3.2 | 8.0 | 0.00 | 0.00 | 0.00 | 51 | 1021.3 |
| 20260506135503 | 0 | 229 | 3.2 | 6.4 | 0.00 | 0.00 | 0.00 | 51 | 1021.4 |
| 20260506135100 | 0 | 230 | 3.2 | 6.4 | 0.00 | 0.00 | 0.00 | 51 | 1021.3 |
| 20260506134559 | 0 | 236 | 3.2 | 8.0 | 0.00 | 0.00 | 0.00 | 52 | 1021.4 |
| 20260506134101 | 0 | 234 | 4.8 | 8.0 | 0.00 | 0.00 | 0.00 | 52 | 1021.3 |
| 20260506133107 | -1 | 235 | 4.8 | 8.0 | 0.00 | 0.00 | 0.00 | 54 | 1021.3 |
| 20260506132552 | -1 | 235 | 3.2 | 6.4 | 0.00 | 0.00 | 0.00 | 55 | 1021.3 |
| 20260506132052 | -1 | 235 | 3.2 | 8.0 | 0.00 | 0.00 | 0.00 | 55 | 1021.4 |
| 20260506131606 | -1 | 236 | 4.8 | 8.0 | 0.00 | 0.00 | 0.00 | 55 | 1021.3 |
| 20260506131051 | -2 | 236 | 3.2 | 8.0 | 0.00 | 0.00 | 0.00 | 55 | 1021.2 |
| 20260506130551 | -2 | 236 | 3.2 | 6.4 | 0.00 | 0.00 | 0.00 | 55 | 1021.3 |
| 20260506130051 | -2 | 236 | 4.8 | 6.4 | 0.00 | 0.00 | 0.00 | 56 | 1021.2 |
| 20260506125550 | -2 | 237 | 3.2 | 6.4 | 0.00 | 0.00 | 0.00 | 57 | 1021.0 |
| 20260506125050 | -2 | 237 | 3.2 | 4.8 | 0.00 | 0.00 | 0.00 | 57 | 1021.3 |
| 20260506124551 | -3 | 237 | 0.0 | 4.8 | 0.00 | 0.00 | 0.00 | 58 | 1021.2 |
| 20260506124050 | -3 | 237 | 3.2 | 4.8 | 0.00 | 0.00 | 0.00 | 58 | 1021.2 |
| 20260506123056 | -3 | 237 | 0.0 | 3.2 | 0.00 | 0.00 | 0.00 | 60 | 1021.0 |
| 20260506122554 | -4 | 237 | 0.0 | 3.2 | 0.00 | 0.00 | 0.00 | 60 | 1020.9 |
| 20260506122052 | -4 | 238 | 0.0 | 0.0 | 0.00 | 0.00 | 0.00 | 60 | 1020.9 |
| 20260506121556 | -4 | 238 | 0.0 | 1.6 | 0.00 | 0.00 | 0.00 | 59 | 1020.9 |
| 20260506121052 | -4 | 238 | 0.0 | 3.2 | 0.00 | 0.00 | 0.00 | 58 | 1020.9 |
| 20260506120550 | -3 | 238 | 0.0 | 6.4 | 0.00 | 0.00 | 0.00 | 57 | 1020.8 |
| 20260506120100 | -3 | 238 | 0.0 | 6.4 | 0.00 | 0.00 | 0.00 | 55 | 1020.8 |
| 20260506115549 | -2 | 242 | 1.6 | 11.3 | 0.00 | 0.00 | 0.00 | 53 | 1020.6 |
| 20260506115048 | -2 | 241 | 3.2 | 11.3 | 0.00 | 0.00 | 0.00 | 53 | 1020.6 |
| 20260506114548 | -2 | 320 | 1.6 | 8.0 | 0.00 | 0.00 | 0.00 | 53 | 1020.5 |
| 20260506114147 | -2 | 325 | 3.2 | 8.0 | 0.00 | 0.00 | 0.00 | 54 | 1020.4 |